SCP
0 -0 -0 -0 0 -0 -0 -0 -0 -0 -0 -0 0 -0 -0 0 -0 -0 -0 -0 -0 -0 0 -0 -0 0 0 -0 -0 -0 -0 -0 -0 -0 0 -0 -0 -0 -0 -0 0 -0 -0
0 0 0 -0 -0 -0 -0 -0 -0 -0 -0 -0 0 -0 0 0 -0 -0 -0 -0 -0 -0 -0 -0 -0 -0 -0 -0 -0 -0 -0 -0 0 0 -0 -0 -0 -0 0 0 0 -0 -0
0 0 0 0 0 0 -0 -0 -0 -0 -0 -0 0 0 0 0 -0 -0 -0 -0 -0 -0 -0 -0 -0 -0 -0 -0 0 0 0 0 0 -0 -0 -0 -0 0 0 0 0 0 0
0 0 0 0 0 0 0 0 -0 -0 -0 0 0 0 -0 0 -0 -0 -0 0 -0 -0 -0 0 -0 0 0 0 0 0 -0 -0 0 0 0 0 -0 -0 -0 -0 0 0 0
1 0 0 0 0 0 0 0 0 -0 -0 0 0 0 -0 -0 -0 -0 -0 -0 0 -0 0 0 0 0 -0 -0 -0 -0 0 -0 0 0 0 0 0 -0 -0 0 0 0 0
0 0 0 0 0 0 0 0 0 0 0 0 0 0 -0 -0 -0 -0 -0 -0 -0 -0 -0 0 0 -0 -0 -0 -0 0 0 -0 0 0 0 0 0 0 -0 -0 0 0 0
-0 0 1 0 0 0 0 0 0 0 0 -0 -0 0 0 -0 -0 -0 0 -0 -0 -0 -0 -0 -0 -0 -0 -0 -0 -0 0 0 0 0 -0 0 -0 0 0 -0 -0 0 0
0 -0 -0 0 0 0 0 0 0 0 0 -0 -0 0 -0 -0 -0 0 0 -0 -0 -0 0 0 -0 -0 -0 -0 0 0 -0 0 0 0 0 0 -0 0 -0 -0 -0 0 0
-0 -0 -0 0 0 0 0 0 0 0 0 0 -0 -0 0 0 0 0 -0 -0 0 0 0 0 0 -0 0 0 0 0 0 0 0 0 0 0 -0 0 0 0 -0 -0 0
0 -0 -0 0 0 0 0 0 0 0 0 0 0 0 -0 0 0 0 0 0 0 0 0 0 0 0 0 0 0 0 0 0 0 0 0 0 -0 -0 -0 0 -0 0 0
0 0 -0 0 0 0 0 0 0 0 0 0 -0 0 0 0 0 0 0 0 0 0 0 0 0 0 0 0 0 0 0 0 0 0 0 0 0 0 0 0 -0 -0 -0
0 0 -0 -0 0 -0 0 0 0 0 0 0 0 0 0 0 0 0 0 0 0 0 0 0 0 0 -0 0 0 0 0 0 0 0 0 0 0 0 0 0 0 0 0
0 0 0 -0 -0 -0 -0 -0 -0 -0 -0 0 0 0 0 0 0 0 0 0 0 0 0 0 0 0 0 0 0 0 0 0 0 0 0 0 0 0 0 0 0 0 0
0 0 -0 -0 -0 -0 0 0 0 -0 0 0 0 0 0 0 0 0 0 0 0 0 0 0 0 0 0 0 0 0 0 0 0 0 0 0 0 0 0 0 0 0 0
-0 0 0 -0 -0 -0 -0 -0 -0 0 0 0 0 0 0 0 0 0 0 0 0 0 0 0 0 0 -0 -0 -0 0 0 0 0 0 0 0 0 0 0 0 0 0 0
0 -0 -0 0 0 0 -0 -0 -0 0 0 0 0 0 0 0 0 0 0 0 0 0 0 0 0 0 0 0 -0 0 0 0 0 0 0 0 0 0 0 0 0 0 0
0 -0 0 0 0 0 -0 0 0 -0 0 0 0 0 0 0 0 0 0 0 0 0 0 0 0 0 0 0 -0 -0 0 0 0 0 0 0 0 0 0 0 0 0 0
0 0 -0 0 0 0 0 0 0 0 0 0 0 0 0 0 0 0 0 0 0 0 -0 -0 -0 0 0 -0 -0 -0 -0 0 0 0 0 0 0 0 0 0 0 0 0
0 0 0 0 0 0 0 0 0 0 0 0 0 0 0 0 0 0 0 0 0 -0 -0 -0 -0 -0 -0 -0 -0 -0 -0 0 0 -0 -0 0 0 0 0 0 0 0 0
-0 0 0 0 0 0 0 0 0 0 0 0 0 0 0 0 0 0 0 0 0 -0 -0 -0 0 -0 -0 -0 -0 -0 0 -0 -0 -0 -0 0 0 0 0 0 0 0 0
-0 0 0 0 0 0 0 0 0 0 0 0 0 0 0 0 0 0 0 0 0 -0 0 -0 -0 -0 -0 0 -0 0 -0 -0 -0 -0 0 0 0 0 0 0 0 0 0
-0 -0 -0 -0 0 -0 0 0 0 0 0 0 0 0 0 0 0 0 0 0 0 -0 0 -0 -0 -0 0 -0 -0 -0 -0 -0 -0 -0 -0 0 -0 0 0 0 0 0 0
-0 -0 -0 -0 0 0 -0 0 0 0 0 0 0 0 0 0 0 0 0 0 0 0 -0 -0 -0 -0 -0 0 0 0 0 0 -0 -0 -0 -0 -0 -0 -0 0 0 0 0
-0 -0 -0 0 0 -0 -0 0 0 0 0 0 0 0 0 0 0 0 0 -0 0 0 0 -0 -0 -0 0 0 -0 0 0 0 0 -0 -0 -0 -0 0 -0 -0 -0 0 0
-0 -0 -0 -0 0 -0 -0 0 0 0 0 0 0 0 0 0 0 0 -0 -0 -0 -0 -0 0 -0 -0 -0 0 0 0 0 -0 0 0 -0 0 0 0 -0 -0 0 0 -0
-0 -0 -0 -0 -0 -0 0 -0 0 0 0 0 0 0 0 0 -0 -0 -0 0 0 0 -0 -0 -0 0 -0 0 0 -0 0 0 0 0 -0 -0 0 0 0 0 0 -0 0
Wind_Speed_500mb
35 34 28 28 30 30 29 33 27 26 31 30 32 31 29 28 28 24 22 20 17 15 16 20 17 18 19 17 14 10 14 18 18 20 22 21 17 16 14 14 18 15 16
41 34 36 26 28 27 27 28 30 29 29 29 27 25 22 22 21 20 18 15 16 15 17 20 21 19 16 16 15 15 16 20 20 19 20 18 16 14 15 16 17 15 18
31 36 30 24 24 25 25 24 25 25 27 27 22 19 17 17 19 19 21 22 14 16 20 20 18 17 20 19 18 18 19 19 20 22 26 13 8 14 13 10 10 11 13
27 27 30 26 21 21 22 23 24 26 25 24 19 17 18 18 17 21 24 23 19 19 17 21 18 19 20 21 22 22 22 20 20 19 16 9 11 15 12 7 2 5 9
32 28 29 21 19 20 20 21 20 20 19 19 20 19 16 17 21 22 20 19 20 22 18 20 18 19 21 25 25 23 18 14 14 15 11 13 10 9 9 3 5 1 7
40 28 27 25 22 17 16 13 13 16 17 17 18 16 18 20 23 23 19 22 19 21 18 21 22 23 23 21 17 16 14 9 20 4 5 2 12 16 3 14 3 6 12
28 31 32 27 29 18 18 16 14 16 19 19 18 15 19 22 23 22 23 23 18 19 18 20 23 22 18 17 16 12 9 9 9 5 9 9 6 11 5 10 9 10 12
27 24 28 28 26 21 19 20 18 18 10 18 23 28 20 26 28 26 25 22 20 18 18 20 20 16 13 12 11 9 7 8 10 9 11 9 11 4 15 25 10 9 6
21 21 24 28 24 23 24 16 26 21 18 21 27 26 24 27 28 25 21 23 21 17 15 15 15 12 9 9 9 5 7 13 13 16 11 11 17 14 18 19 2 3 5
21 19 20 23 18 23 20 11 24 27 26 25 25 27 28 28 27 25 21 20 18 15 12 13 11 9 7 7 3 6 11 13 11 9 10 12 19 19 12 11 14 4 5
18 17 18 23 22 13 22 27 29 26 33 36 26 25 25 24 24 23 21 17 16 14 11 11 9 8 7 5 3 8 14 11 14 9 8 15 12 9 7 5 4 6 9
19 18 17 19 29 18 15 25 35 36 32 31 28 23 24 25 24 20 19 15 13 14 12 11 11 8 8 3 10 12 12 15 13 10 7 14 5 7 8 8 5 3 7
17 16 18 20 24 19 24 29 32 39 34 22 21 20 20 16 15 14 10 7 8 13 7 5 4 7 5 4 6 8 12 13 11 8 8 8 10 7 6 6 4 1 8
21 20 21 22 24 25 26 24 42 34 31 13 17 17 19 15 14 15 13 12 16 9 8 7 2 1 6 5 5 7 9 10 6 5 10 8 10 11 8 8 3 5 11
20 25 26 24 26 28 32 41 29 24 22 12 13 14 15 14 13 13 16 12 16 14 5 4 5 3 9 10 11 7 6 7 5 7 0 9 10 9 10 8 5 10 14
20 27 30 24 28 31 35 39 30 26 21 18 17 12 17 14 13 14 15 11 13 11 7 3 5 5 7 7 13 6 4 5 7 11 6 11 10 8 11 10 10 12 14
20 27 29 28 29 32 34 32 29 25 20 17 15 16 13 14 17 18 14 12 10 8 3 4 9 5 7 9 15 9 7 3 2 4 7 8 11 11 9 8 11 12 12
22 34 37 24 28 32 34 32 28 24 22 19 17 14 14 15 18 21 16 11 12 6 1 2 4 5 9 11 14 10 10 2 4 8 7 11 13 6 9 7 9 10 9
26 32 37 34 28 31 37 27 29 29 22 20 20 16 14 14 18 16 15 12 13 6 3 1 6 8 10 12 16 16 7 4 10 7 9 11 12 13 6 5 5 4 4
28 31 30 32 34 40 36 27 29 30 20 20 19 16 16 12 19 17 16 15 12 6 4 2 4 9 11 14 12 8 7 4 5 8 8 7 7 8 8 9 5 2 2
29 34 35 38 37 39 28 27 30 26 17 19 16 18 16 13 20 22 14 16 14 9 11 3 8 13 9 13 8 1 3 6 2 7 11 7 5 7 6 4 8 5 8
36 37 37 35 42 40 28 26 24 20 15 17 15 17 17 18 23 21 19 15 16 10 4 4 7 8 10 9 7 5 6 11 8 10 11 8 7 5 3 6 8 7 7
41 41 40 42 42 43 34 27 28 21 17 19 18 14 18 22 21 21 19 16 14 11 8 7 7 7 5 7 6 7 9 5 8 6 5 6 4 4 4 4 9 7 4
45 42 41 44 43 45 42 30 25 23 20 17 17 16 17 20 20 20 17 18 15 13 16 11 8 5 4 5 7 3 3 2 7 10 5 2 1 3 7 5 7 8 8
47 45 44 45 48 45 47 39 31 31 23 17 20 21 21 24 21 17 15 17 18 13 19 20 12 10 7 7 8 5 2 3 4 7 5 14 3 1 3 6 7 7 9
48 46 44 48 48 50 47 45 39 33 33 25 24 25 22 24 25 24 18 21 19 14 14 14 15 14 13 11 10 11 7 6 4 7 7 5 10 5 4 6 9 9 9
Wind_Direction_500mb
166 157 151 147 152 155 146 142 143 143 147 140 136 136 131 127 121 122 119 118 122 125 127 135 133 127 128 134 134 109 104 96 92 90 94 98 95 93 91 112 115 153 142
167 162 155 149 154 152 151 151 149 151 156 152 143 143 142 129 125 119 112 109 116 119 130 130 125 126 123 130 122 113 106 100 93 94 96 84 90 95 107 108 139 174 161
157 162 158 156 152 156 151 148 155 160 158 157 156 155 150 136 126 115 110 109 118 112 119 124 122 120 116 118 114 112 105 98 90 85 75 96 82 79 74 97 142 156 165
153 164 169 163 158 158 157 160 161 160 160 164 163 159 147 133 119 119 119 121 142 125 125 121 116 116 115 115 110 104 101 90 84 86 72 77 80 87 63 87 86 145 162
157 163 171 163 170 169 168 169 166 162 168 167 166 152 142 132 129 123 124 130 124 123 122 124 124 118 118 114 109 103 96 89 80 65 81 93 87 60 43 81 22 249 171
166 166 165 173 172 184 181 173 181 174 172 177 172 169 144 136 135 125 136 129 136 130 129 127 128 123 122 122 115 109 104 88 75 41 3 240 215 348 247 330 263 250 227
153 170 173 172 183 174 173 177 194 195 184 184 181 163 152 141 137 139 148 136 137 132 134 133 134 135 129 119 117 109 77 70 70 1 339 276 214 137 267 286 312 275 266
153 160 175 182 189 186 183 178 190 176 171 178 171 150 159 152 148 146 155 146 138 133 138 138 142 139 129 129 100 77 74 43 37 345 330 284 293 183 295 249 275 255 287
149 158 162 178 181 186 189 198 199 162 160 163 147 136 141 151 152 162 153 147 145 135 142 145 152 153 158 125 115 82 27 11 40 318 8 318 279 301 19 239 165 223 285
169 170 172 185 194 205 215 210 155 140 151 136 145 143 148 145 146 156 150 155 141 138 147 147 149 153 153 121 66 20 357 0 13 345 355 291 287 319 13 199 163 210 243
163 167 180 199 201 232 181 183 156 161 159 135 141 142 142 140 139 125 176 170 141 135 146 134 130 117 109 69 342 330 327 331 309 318 336 319 290 306 349 18 41 228 211
179 171 177 187 187 203 182 188 176 173 158 148 144 155 154 148 130 168 165 156 134 137 130 112 91 75 50 327 316 329 349 307 314 291 287 340 332 318 353 4 304 218 201
188 178 172 171 172 164 155 165 171 167 169 157 146 154 153 144 145 146 171 148 151 141 102 76 47 26 326 309 316 322 312 326 311 308 273 356 40 69 24 345 336 150 199
192 192 174 167 167 165 157 152 156 169 165 159 165 153 162 144 166 160 160 172 149 150 144 111 71 58 339 337 334 323 331 335 328 344 296 5 35 64 51 1 16 145 157
195 194 182 175 172 164 160 159 162 167 157 175 144 168 158 160 161 152 162 151 149 139 147 110 12 325 335 328 346 319 333 354 95 76 4 22 23 42 70 52 79 125 128
196 188 170 168 169 163 162 159 156 164 164 156 157 171 155 155 164 157 153 150 153 149 153 77 327 329 345 356 356 18 29 30 97 94 76 19 44 55 81 94 112 118 123
174 170 168 161 165 161 165 173 155 168 160 158 162 164 161 151 159 157 161 152 160 149 126 4 354 342 354 359 10 3 3 4 110 100 77 85 39 66 90 108 121 123 126
173 176 164 166 161 164 164 166 174 165 165 165 172 170 159 163 160 158 159 161 169 160 75 29 31 5 356 1 353 350 337 337 234 168 102 97 106 65 69 127 130 132 139
171 181 171 163 164 181 169 174 179 171 169 180 177 173 184 173 174 165 172 172 172 165 174 48 336 354 353 344 348 348 335 113 105 135 131 119 102 108 129 97 137 143 179
175 179 177 181 176 171 172 175 176 178 187 189 181 186 195 191 190 174 179 173 167 181 215 266 312 319 337 332 346 360 48 96 140 154 153 131 152 90 111 135 89 29 231
173 179 183 185 181 175 177 190 193 191 195 193 188 199 198 195 184 171 170 173 167 170 197 298 314 321 328 327 341 317 36 68 62 151 146 139 147 139 168 142 135 160 330
183 185 189 188 185 183 185 178 185 185 199 188 195 200 191 188 176 172 166 174 181 202 202 277 312 314 320 321 340 263 210 153 109 116 138 142 134 156 160 189 196 194 176
194 192 197 198 199 196 185 184 191 194 186 195 198 200 203 199 195 193 191 181 200 194 224 251 296 323 311 314 332 331 290 71 191 156 163 187 176 194 210 206 197 215 200
197 196 197 203 202 198 196 198 201 198 197 201 204 200 195 194 198 208 213 222 223 222 232 248 275 233 285 276 287 291 351 4 336 138 137 169 116 200 217 216 210 222 206
195 196 195 203 208 205 209 208 212 206 214 216 205 208 194 206 203 207 218 224 234 245 248 226 238 241 244 233 269 272 230 305 352 309 242 154 218 90 204 194 233 215 213
201 196 196 201 206 210 216 217 218 215 210 213 217 215 216 214 219 223 225 226 225 228 245 243 242 258 222 226 229 248 242 266 328 287 272 278 309 278 260 237 215 236 221
Wind_Speed_850mb
35 34 28 28 30 30 29 33 27 26 31 30 32 31 29 28 28 24 22 20 17 15 16 20 17 18 19 17 14 10 14 18 18 20 22 21 17 16 14 14 18 15 16
41 34 36 26 28 27 27 28 30 29 29 29 27 25 22 22 21 20 18 15 16 15 17 20 21 19 16 16 15 15 16 20 20 19 20 18 16 14 15 16 17 15 18
31 36 30 24 24 25 25 24 25 25 27 27 22 19 17 17 19 19 21 22 14 16 20 20 18 17 20 19 18 18 19 19 20 22 26 13 8 14 13 10 10 11 13
27 27 30 26 21 21 22 23 24 26 25 24 19 17 18 18 17 21 24 23 19 19 17 21 18 19 20 21 22 22 22 20 20 19 16 9 11 15 12 7 2 5 9
32 28 29 21 19 20 20 21 20 20 19 19 20 19 16 17 21 22 20 19 20 22 18 20 18 19 21 25 25 23 18 14 14 15 11 13 10 9 9 3 5 1 7
40 28 27 25 22 17 16 13 13 16 17 17 18 16 18 20 23 23 19 22 19 21 18 21 22 23 23 21 17 16 14 9 20 4 5 2 12 16 3 14 3 6 12
28 31 32 27 29 18 18 16 14 16 19 19 18 15 19 22 23 22 23 23 18 19 18 20 23 22 18 17 16 12 9 9 9 5 9 9 6 11 5 10 9 10 12
27 24 28 28 26 21 19 20 18 18 10 18 23 28 20 26 28 26 25 22 20 18 18 20 20 16 13 12 11 9 7 8 10 9 11 9 11 4 15 25 10 9 6
21 21 24 28 24 23 24 16 26 21 18 21 27 26 24 27 28 25 21 23 21 17 15 15 15 12 9 9 9 5 7 13 13 16 11 11 17 14 18 19 2 3 5
21 19 20 23 18 23 20 11 24 27 26 25 25 27 28 28 27 25 21 20 18 15 12 13 11 9 7 7 3 6 11 13 11 9 10 12 19 19 12 11 14 4 5
18 17 18 23 22 13 22 27 29 26 33 36 26 25 25 24 24 23 21 17 16 14 11 11 9 8 7 5 3 8 14 11 14 9 8 15 12 9 7 5 4 6 9
19 18 17 19 29 18 15 25 35 36 32 31 28 23 24 25 24 20 19 15 13 14 12 11 11 8 8 3 10 12 12 15 13 10 7 14 5 7 8 8 5 3 7
17 16 18 20 24 19 24 29 32 39 34 22 21 20 20 16 15 14 10 7 8 13 7 5 4 7 5 4 6 8 12 13 11 8 8 8 10 7 6 6 4 1 8
21 20 21 22 24 25 26 24 42 34 31 13 17 17 19 15 14 15 13 12 16 9 8 7 2 1 6 5 5 7 9 10 6 5 10 8 10 11 8 8 3 5 11
20 25 26 24 26 28 32 41 29 24 22 12 13 14 15 14 13 13 16 12 16 14 5 4 5 3 9 10 11 7 6 7 5 7 0 9 10 9 10 8 5 10 14
20 27 30 24 28 31 35 39 30 26 21 18 17 12 17 14 13 14 15 11 13 11 7 3 5 5 7 7 13 6 4 5 7 11 6 11 10 8 11 10 10 12 14
20 27 29 28 29 32 34 32 29 25 20 17 15 16 13 14 17 18 14 12 10 8 3 4 9 5 7 9 15 9 7 3 2 4 7 8 11 11 9 8 11 12 12
22 34 37 24 28 32 34 32 28 24 22 19 17 14 14 15 18 21 16 11 12 6 1 2 4 5 9 11 14 10 10 2 4 8 7 11 13 6 9 7 9 10 9
26 32 37 34 28 31 37 27 29 29 22 20 20 16 14 14 18 16 15 12 13 6 3 1 6 8 10 12 16 16 7 4 10 7 9 11 12 13 6 5 5 4 4
28 31 30 32 34 40 36 27 29 30 20 20 19 16 16 12 19 17 16 15 12 6 4 2 4 9 11 14 12 8 7 4 5 8 8 7 7 8 8 9 5 2 2
29 34 35 38 37 39 28 27 30 26 17 19 16 18 16 13 20 22 14 16 14 9 11 3 8 13 9 13 8 1 3 6 2 7 11 7 5 7 6 4 8 5 8
36 37 37 35 42 40 28 26 24 20 15 17 15 17 17 18 23 21 19 15 16 10 4 4 7 8 10 9 7 5 6 11 8 10 11 8 7 5 3 6 8 7 7
41 41 40 42 42 43 34 27 28 21 17 19 18 14 18 22 21 21 19 16 14 11 8 7 7 7 5 7 6 7 9 5 8 6 5 6 4 4 4 4 9 7 4
45 42 41 44 43 45 42 30 25 23 20 17 17 16 17 20 20 20 17 18 15 13 16 11 8 5 4 5 7 3 3 2 7 10 5 2 1 3 7 5 7 8 8
47 45 44 45 48 45 47 39 31 31 23 17 20 21 21 24 21 17 15 17 18 13 19 20 12 10 7 7 8 5 2 3 4 7 5 14 3 1 3 6 7 7 9
48 46 44 48 48 50 47 45 39 33 33 25 24 25 22 24 25 24 18 21 19 14 14 14 15 14 13 11 10 11 7 6 4 7 7 5 10 5 4 6 9 9 9
Wind_Direction_850mb
166 157 151 147 152 155 146 142 143 143 147 140 136 136 131 127 121 122 119 118 122 125 127 135 133 127 128 134 134 109 104 96 92 90 94 98 95 93 91 112 115 153 142
167 162 155 149 154 152 151 151 149 151 156 152 143 143 142 129 125 119 112 109 116 119 130 130 125 126 123 130 122 113 106 100 93 94 96 84 90 95 107 108 139 174 161
157 162 158 156 152 156 151 148 155 160 158 157 156 155 150 136 126 115 110 109 118 112 119 124 122 120 116 118 114 112 105 98 90 85 75 96 82 79 74 97 142 156 165
153 164 169 163 158 158 157 160 161 160 160 164 163 159 147 133 119 119 119 121 142 125 125 121 116 116 115 115 110 104 101 90 84 86 72 77 80 87 63 87 86 145 162
157 163 171 163 170 169 168 169 166 162 168 167 166 152 142 132 129 123 124 130 124 123 122 124 124 118 118 114 109 103 96 89 80 65 81 93 87 60 43 81 22 249 171
166 166 165 173 172 184 181 173 181 174 172 177 172 169 144 136 135 125 136 129 136 130 129 127 128 123 122 122 115 109 104 88 75 41 3 240 215 348 247 330 263 250 227
153 170 173 172 183 174 173 177 194 195 184 184 181 163 152 141 137 139 148 136 137 132 134 133 134 135 129 119 117 109 77 70 70 1 339 276 214 137 267 286 312 275 266
153 160 175 182 189 186 183 178 190 176 171 178 171 150 159 152 148 146 155 146 138 133 138 138 142 139 129 129 100 77 74 43 37 345 330 284 293 183 295 249 275 255 287
149 158 162 178 181 186 189 198 199 162 160 163 147 136 141 151 152 162 153 147 145 135 142 145 152 153 158 125 115 82 27 11 40 318 8 318 279 301 19 239 165 223 285
169 170 172 185 194 205 215 210 155 140 151 136 145 143 148 145 146 156 150 155 141 138 147 147 149 153 153 121 66 20 357 0 13 345 355 291 287 319 13 199 163 210 243
163 167 180 199 201 232 181 183 156 161 159 135 141 142 142 140 139 125 176 170 141 135 146 134 130 117 109 69 342 330 327 331 309 318 336 319 290 306 349 18 41 228 211
179 171 177 187 187 203 182 188 176 173 158 148 144 155 154 148 130 168 165 156 134 137 130 112 91 75 50 327 316 329 349 307 314 291 287 340 332 318 353 4 304 218 201
188 178 172 171 172 164 155 165 171 167 169 157 146 154 153 144 145 146 171 148 151 141 102 76 47 26 326 309 316 322 312 326 311 308 273 356 40 69 24 345 336 150 199
192 192 174 167 167 165 157 152 156 169 165 159 165 153 162 144 166 160 160 172 149 150 144 111 71 58 339 337 334 323 331 335 328 344 296 5 35 64 51 1 16 145 157
195 194 182 175 172 164 160 159 162 167 157 175 144 168 158 160 161 152 162 151 149 139 147 110 12 325 335 328 346 319 333 354 95 76 4 22 23 42 70 52 79 125 128
196 188 170 168 169 163 162 159 156 164 164 156 157 171 155 155 164 157 153 150 153 149 153 77 327 329 345 356 356 18 29 30 97 94 76 19 44 55 81 94 112 118 123
174 170 168 161 165 161 165 173 155 168 160 158 162 164 161 151 159 157 161 152 160 149 126 4 354 342 354 359 10 3 3 4 110 100 77 85 39 66 90 108 121 123 126
173 176 164 166 161 164 164 166 174 165 165 165 172 170 159 163 160 158 159 161 169 160 75 29 31 5 356 1 353 350 337 337 234 168 102 97 106 65 69 127 130 132 139
171 181 171 163 164 181 169 174 179 171 169 180 177 173 184 173 174 165 172 172 172 165 174 48 336 354 353 344 348 348 335 113 105 135 131 119 102 108 129 97 137 143 179
175 179 177 181 176 171 172 175 176 178 187 189 181 186 195 191 190 174 179 173 167 181 215 266 312 319 337 332 346 360 48 96 140 154 153 131 152 90 111 135 89 29 231
173 179 183 185 181 175 177 190 193 191 195 193 188 199 198 195 184 171 170 173 167 170 197 298 314 321 328 327 341 317 36 68 62 151 146 139 147 139 168 142 135 160 330
183 185 189 188 185 183 185 178 185 185 199 188 195 200 191 188 176 172 166 174 181 202 202 277 312 314 320 321 340 263 210 153 109 116 138 142 134 156 160 189 196 194 176
194 192 197 198 199 196 185 184 191 194 186 195 198 200 203 199 195 193 191 181 200 194 224 251 296 323 311 314 332 331 290 71 191 156 163 187 176 194 210 206 197 215 200
197 196 197 203 202 198 196 198 201 198 197 201 204 200 195 194 198 208 213 222 223 222 232 248 275 233 285 276 287 291 351 4 336 138 137 169 116 200 217 216 210 222 206
195 196 195 203 208 205 209 208 212 206 214 216 205 208 194 206 203 207 218 224 234 245 248 226 238 241 244 233 269 272 230 305 352 309 242 154 218 90 204 194 233 215 213
201 196 196 201 206 210 216 217 218 215 210 213 217 215 216 214 219 223 225 226 225 228 245 243 242 258 222 226 229 248 242 266 328 287 272 278 309 278 260 237 215 236 221